Location: Lancaster
(34.6980°N, 118.1360°W)
Time: 03:40:09
(UTC-07:00)

Hubble Space Telescope - Visible Passes

Search period start: 24 April 2018 00:00
Search period end: 04 May 2018 00:00
Orbit: 537 x 541 km, 28.5° (Epoch: 23 April)

Date Brightness Start Highest point End Pass type
(mag) Time Alt. Az. Time Alt. Az. Time Alt. Az.
25 Apr 2.8 20:01:14 10° S 20:02:53 12° SSE 20:04:32 10° SE visible
25 Apr 3.2 21:40:00 10° SW 21:40:39 13° SW 21:40:39 13° SW visible
26 Apr 2.5 21:29:30 10° SW 21:31:22 21° SSW 21:31:22 21° SSW visible
27 Apr 1.9 21:19:04 10° WSW 21:21:57 29° SSW 21:21:57 29° SSW visible
28 Apr 1.6 21:08:39 10° WSW 21:12:24 33° S 21:12:26 33° S visible
29 Apr 1.5 20:58:16 10° WSW 21:02:02 34° S 21:02:50 31° SSE visible
30 Apr 1.6 20:47:54 10° WSW 20:51:40 34° S 20:53:09 26° SE visible
01 May 1.7 20:37:34 10° WSW 20:41:18 33° S 20:43:24 20° SE visible
02 May 1.8 20:27:15 10° WSW 20:30:56 32° S 20:33:38 16° SE visible
02 May 3.5 22:08:54 10° WSW 22:08:59 10° WSW 22:08:59 10° WSW visible
03 May 2.0 20:16:57 10° WSW 20:20:33 29° S 20:23:51 12° SE visible
03 May 3.4 21:58:58 10° SW 21:59:12 11° SW 21:59:12 11° SW visible
